Miscellaneous Local Product
Issued by NWS Hastings, NE

Home | Current Version | Previous Version | Graphics & Text | Print | Product List | Glossary On
Versions: 1 2 3 4 5 6 7 8 9 10 11 12 13 14 15 16 17 18 19 20 21 22 23 24 25 26 27 28 29 30 31 32 33 34 35 36 37 38 39 40 41 42 43 44 45 46 47 48 49 50
000
AXUS43 KGID 271502
MISGRI

GID CWA HOURLY WEATHER ROUNDUP
NATIONAL WEATHER SERVICE HASTINGS NE
1000 AM CDT WED JUL 27 2016

NOTE: "FAIR" INDICATES FEW OR NO CLOUDS BELOW 12,000 FEET WITH NO
SIGNIFICANT WEATHER AND/OR OBSTRUCTIONS TO VISIBILITY.

...SOUTH CENTRAL NEBRASKA...

CITY           SKY/WX    TMP DP  RH WIND       PRES   REMARKS
GRAND ISLAND   SUNNY     72  62  71 N8        30.08R
HASTINGS       SUNNY     72  64  76 N7        30.08R
KEARNEY        SUNNY     75  16  10 W9        30.06R
ORD            SUNNY     72  61  68 N9        30.08R
YORK           SUNNY     73  64  73 CALM      30.06S
AURORA         SUNNY     73  64  73 N6        30.07S
LEXINGTON      SUNNY     69  64  81 NW8       30.08S
HOLDREGE       SUNNY     72  62  71 W5        30.06S
HEBRON         SUNNY     77  66  68 W6        30.04S

...NEBRASKA PANHANDLE...

CITY           SKY/WX    TMP DP  RH WIND       PRES   REMARKS
CHADRON        PTSUNNY   66  60  81 SW9       30.10F
ALLIANCE       CLOUDY    65  60  84 NW8       30.16F
SCOTTSBLUFF    MOSUNNY   69  60  73 E13       30.15F
SIDNEY         CLOUDY    68  58  70 N10       30.22F

...WESTERN AND NORTH CENTRAL NEBRASKA...

CITY           SKY/WX    TMP DP  RH WIND       PRES   REMARKS
VALENTINE      MOSUNNY   73  59  61 MISG      30.10R
AINSWORTH      SUNNY     71  63  75 NW8       30.10R
ONEILL         SUNNY     73  59  59 N8        30.09S
BROKEN BOW     SUNNY     72  65  78 N6        30.10R
IMPERIAL       SUNNY     71  60  68 SW9       30.11F
NORTH PLATTE   CLOUDY    69  61  75 NE3       30.10R
MCCOOK         SUNNY     72  60  66 W6        30.07S

...EASTERN NEBRASKA...

CITY           SKY/WX    TMP DP  RH WIND       PRES   REMARKS
NORFOLK        SUNNY     77  66  68 N15       30.04R
SO SIOUX CITY  CLOUDY    74  68  81 SE10      30.00S
TEKAMAH        CLOUDY    74  68  81 E7        29.98F
COLUMBUS       SUNNY     73  63  68 NW8       30.03F
ALBION         SUNNY     72  65  80 N9        30.07R
OMAHA EPPLEY   CLOUDY    78  68  71 SW8       30.01R
OFFUTT AFB     CLOUDY    78  70  75 W8        30.02R
MILLARD        MOSUNNY   78  69  73 CALM      30.01F
LINCOLN        PTSUNNY   80  63  55 NW8       30.04R
NEBRASKA CITY  PTSUNNY   78  72  81 NW10      30.03R
BEATRICE       SUNNY     79  69  69 NW9       30.03R
FALLS CITY     SUNNY     79  70  74 S6        29.98R

...NORTHERN KANSAS...

CITY           SKY/WX    TMP DP  RH WIND       PRES   REMARKS
GOODLAND       MOSUNNY   72  64  76 S15       30.12S
HILL CITY      CLOUDY    77  62  59 CALM      30.04R
NORTON         SUNNY     75  55  50 CALM      30.04F
SMITH CENTER   SUNNY     75  63  64 NW7       30.04S
BELOIT         SUNNY     79  68  69 CALM      30.01S
HAYS           CLOUDY    79  61  53 CALM      30.02R
RUSSELL        CLOUDY    78  71  79 CALM      30.02R
CONCORDIA      PTSUNNY   77  69  76 CALM      30.03R
SALINA         CLOUDY    83  72  69 S7        29.99R
TOPEKA         SUNNY     82  71  69 SE12      29.96F



USA.gov is the U.S. government's official web portal to all federal, state and local government web resources and services.